Year,Month,Day,Hour,Minute,Value (Times are PST for temperature in C)
2013,04,25,00,00,12.60
2013,04,25,00,01,12.50
2013,04,25,00,02,12.50
2013,04,25,00,03,12.50
2013,04,25,00,04,12.40
2013,04,25,00,05,12.40
2013,04,25,00,06,12.40
2013,04,25,00,07,12.40
2013,04,25,00,08,12.40
2013,04,25,00,09,12.40
2013,04,25,00,10,12.40
2013,04,25,00,11,12.40
2013,04,25,00,12,12.30
2013,04,25,00,13,12.30
2013,04,25,00,14,12.30
2013,04,25,00,15,12.30
2013,04,25,00,16,12.30
2013,04,25,00,17,12.20
2013,04,25,00,18,12.20
2013,04,25,00,19,12.20
2013,04,25,00,20,12.20
2013,04,25,00,21,12.20
2013,04,25,00,22,12.20
2013,04,25,00,23,12.20
2013,04,25,00,24,12.20
2013,04,25,00,25,12.20
2013,04,25,00,26,12.20
2013,04,25,00,27,12.20
2013,04,25,00,28,12.20
2013,04,25,00,29,12.20
2013,04,25,00,30,12.20
2013,04,25,00,31,12.20
2013,04,25,00,32,12.20
2013,04,25,00,33,12.20
2013,04,25,00,34,12.20
2013,04,25,00,35,12.20
2013,04,25,00,36,12.20
2013,04,25,00,37,12.20
2013,04,25,00,38,12.20
2013,04,25,00,39,12.20
2013,04,25,00,40,12.20
2013,04,25,00,41,12.20
2013,04,25,00,42,12.30
2013,04,25,00,43,12.30
2013,04,25,00,44,12.30
2013,04,25,00,45,12.30
2013,04,25,00,46,12.20
2013,04,25,00,47,12.20
2013,04,25,00,48,12.20
2013,04,25,00,49,12.20
2013,04,25,00,50,12.20
2013,04,25,00,51,12.20
2013,04,25,00,52,12.10
2013,04,25,00,53,12.10
2013,04,25,00,54,12.10
2013,04,25,00,55,12.10
2013,04,25,00,56,12.10
2013,04,25,00,57,12.10
2013,04,25,00,58,12.10
2013,04,25,00,59,12.10
2013,04,25,01,00,12.10
2013,04,25,01,01,12.10
2013,04,25,01,02,12.10
2013,04,25,01,03,12.10
2013,04,25,01,04,12.10
2013,04,25,01,05,12.00
2013,04,25,01,06,12.00
2013,04,25,01,07,12.00
2013,04,25,01,08,12.00
2013,04,25,01,09,12.00
2013,04,25,01,10,12.00
2013,04,25,01,11,11.90
2013,04,25,01,12,11.90
2013,04,25,01,13,11.90
2013,04,25,01,14,11.90
2013,04,25,01,15,11.90
2013,04,25,01,16,11.80
2013,04,25,01,17,11.80
2013,04,25,01,18,11.80
2013,04,25,01,19,11.80
2013,04,25,01,20,11.80
2013,04,25,01,21,11.80
2013,04,25,01,22,11.70
2013,04,25,01,23,11.70
2013,04,25,01,24,11.80
2013,04,25,01,25,11.80
2013,04,25,01,26,11.80
2013,04,25,01,27,11.80
2013,04,25,01,28,11.80
2013,04,25,01,29,11.80
2013,04,25,01,30,11.80
2013,04,25,01,31,11.80
2013,04,25,01,32,11.80
2013,04,25,01,33,11.80
2013,04,25,01,34,11.80
2013,04,25,01,35,11.80
2013,04,25,01,36,11.80
2013,04,25,01,37,11.80
2013,04,25,01,38,11.70
2013,04,25,01,39,11.70
2013,04,25,01,40,11.70
2013,04,25,01,41,11.70
2013,04,25,01,42,11.70
2013,04,25,01,43,11.70
2013,04,25,01,44,11.70
2013,04,25,01,45,11.70
2013,04,25,01,46,11.70
2013,04,25,01,47,11.60
2013,04,25,01,48,11.60
2013,04,25,01,49,11.60
2013,04,25,01,50,11.60
2013,04,25,01,51,11.60
2013,04,25,01,52,11.60
2013,04,25,01,53,11.60
2013,04,25,01,54,11.60
2013,04,25,01,55,11.60
2013,04,25,01,56,11.60
2013,04,25,01,57,11.60
2013,04,25,01,58,11.60
2013,04,25,01,59,11.60
2013,04,25,02,00,11.60
2013,04,25,02,01,11.60
2013,04,25,02,02,11.60
2013,04,25,02,03,11.50
2013,04,25,02,04,11.50
2013,04,25,02,05,11.50
2013,04,25,02,06,11.50
2013,04,25,02,07,11.50
2013,04,25,02,08,11.50
2013,04,25,02,09,11.50
2013,04,25,02,10,11.40
2013,04,25,02,11,11.40
2013,04,25,02,12,11.40
2013,04,25,02,13,11.40
2013,04,25,02,14,11.40
2013,04,25,02,15,11.40
2013,04,25,02,16,11.40
2013,04,25,02,17,11.40
2013,04,25,02,18,11.40
2013,04,25,02,19,11.40
2013,04,25,02,20,11.30
2013,04,25,02,21,11.30
2013,04,25,02,22,11.30
2013,04,25,02,23,11.30
2013,04,25,02,24,11.30
2013,04,25,02,25,11.30
2013,04,25,02,26,11.30
2013,04,25,02,27,11.30
2013,04,25,02,28,11.30
2013,04,25,02,29,11.30
2013,04,25,02,30,11.30
2013,04,25,02,31,11.30
2013,04,25,02,32,11.30
2013,04,25,02,33,11.30
2013,04,25,02,34,11.30
2013,04,25,02,35,11.30
2013,04,25,02,36,11.30
2013,04,25,02,37,11.20
2013,04,25,02,38,11.20
2013,04,25,02,39,11.20
2013,04,25,02,40,11.20
2013,04,25,02,41,11.20
2013,04,25,02,42,11.20
2013,04,25,02,43,11.20
2013,04,25,02,44,11.20
2013,04,25,02,45,11.20
2013,04,25,02,46,11.20
2013,04,25,02,47,11.20
2013,04,25,02,48,11.20
2013,04,25,02,49,11.20
2013,04,25,02,50,11.20
2013,04,25,02,51,11.10
2013,04,25,02,52,11.10
2013,04,25,02,53,11.10
2013,04,25,02,54,11.10
2013,04,25,02,55,11.10
2013,04,25,02,56,11.10
2013,04,25,02,57,11.10
2013,04,25,02,58,11.10
2013,04,25,02,59,11.10
2013,04,25,03,00,11.10
2013,04,25,03,01,11.00
2013,04,25,03,02,11.00
2013,04,25,03,03,11.00
2013,04,25,03,04,10.90
2013,04,25,03,05,10.90
2013,04,25,03,06,10.90
2013,04,25,03,07,10.80
2013,04,25,03,08,10.80
2013,04,25,03,09,10.70
2013,04,25,03,10,10.60
2013,04,25,03,11,10.60
2013,04,25,03,12,10.50
2013,04,25,03,13,10.40
2013,04,25,03,14,10.40
2013,04,25,03,15,10.30
2013,04,25,03,16,10.20
2013,04,25,03,17,10.10
2013,04,25,03,18,10.10
2013,04,25,03,19,10.00
2013,04,25,03,20,9.90
2013,04,25,03,21,9.90
2013,04,25,03,22,9.80
2013,04,25,03,23,9.70
2013,04,25,03,24,9.70
2013,04,25,03,25,9.60
2013,04,25,03,26,9.60
2013,04,25,03,27,9.50
2013,04,25,03,28,9.50
2013,04,25,03,29,9.40
2013,04,25,03,30,9.30
2013,04,25,03,31,9.30
2013,04,25,03,32,9.20
2013,04,25,03,33,9.20
2013,04,25,03,34,9.10
2013,04,25,03,35,9.10
2013,04,25,03,36,9.10
2013,04,25,03,37,9.00
2013,04,25,03,38,9.00
2013,04,25,03,39,8.90
2013,04,25,03,40,8.90
2013,04,25,03,41,8.80
2013,04,25,03,42,8.80
2013,04,25,03,43,8.80
2013,04,25,03,44,8.70
2013,04,25,03,45,8.70
2013,04,25,03,46,8.70
2013,04,25,03,47,8.60
2013,04,25,03,48,8.60
2013,04,25,03,49,8.60
2013,04,25,03,50,8.60
2013,04,25,03,51,8.50
2013,04,25,03,52,8.50
2013,04,25,03,53,8.40
2013,04,25,03,54,8.40
2013,04,25,03,55,8.50
2013,04,25,03,56,8.60
2013,04,25,03,57,8.60
2013,04,25,03,58,8.60
2013,04,25,03,59,8.60
2013,04,25,04,00,8.60
2013,04,25,04,01,8.70
2013,04,25,04,02,8.70
2013,04,25,04,03,8.80
2013,04,25,04,04,8.80
2013,04,25,04,05,8.80
2013,04,25,04,06,8.80
2013,04,25,04,07,8.80
2013,04,25,04,08,8.80
2013,04,25,04,09,8.80
2013,04,25,04,10,8.80
2013,04,25,04,11,8.80
2013,04,25,04,12,8.80
2013,04,25,04,13,8.80
2013,04,25,04,14,8.80
2013,04,25,04,15,8.80
2013,04,25,04,16,8.80
2013,04,25,04,17,8.70
2013,04,25,04,18,8.70
2013,04,25,04,19,8.70
2013,04,25,04,20,8.60
2013,04,25,04,21,8.60
2013,04,25,04,22,8.60
2013,04,25,04,23,8.60
2013,04,25,04,24,8.60
2013,04,25,04,25,8.50
2013,04,25,04,26,8.50
2013,04,25,04,27,8.50
2013,04,25,04,28,8.50
2013,04,25,04,29,8.50
2013,04,25,04,30,8.40
2013,04,25,04,31,8.40
2013,04,25,04,32,8.40
2013,04,25,04,33,8.40
2013,04,25,04,34,8.40
2013,04,25,04,35,8.40
2013,04,25,04,36,8.40
2013,04,25,04,37,8.30
2013,04,25,04,38,8.30
2013,04,25,04,39,8.30
2013,04,25,04,40,8.30
2013,04,25,04,41,8.30
2013,04,25,04,42,8.20
2013,04,25,04,43,8.20
2013,04,25,04,44,8.20
2013,04,25,04,45,8.10
2013,04,25,04,46,8.10
2013,04,25,04,47,8.00
2013,04,25,04,48,8.00
2013,04,25,04,49,8.00
2013,04,25,04,50,8.00
2013,04,25,04,51,8.00
2013,04,25,04,52,8.10
2013,04,25,04,53,8.10
2013,04,25,04,54,8.10
2013,04,25,04,55,8.10
2013,04,25,04,56,8.10
2013,04,25,04,57,8.10
2013,04,25,04,58,8.20
2013,04,25,04,59,8.20
2013,04,25,05,00,8.20
2013,04,25,05,01,8.30
2013,04,25,05,02,8.30
2013,04,25,05,03,8.30
2013,04,25,05,04,8.30
2013,04,25,05,05,8.20
2013,04,25,05,06,8.20
2013,04,25,05,07,8.20
2013,04,25,05,08,8.10
2013,04,25,05,09,8.10
2013,04,25,05,10,8.00
2013,04,25,05,11,8.00
2013,04,25,05,12,7.90
2013,04,25,05,13,7.90
2013,04,25,05,14,7.80
2013,04,25,05,15,7.80
2013,04,25,05,16,7.80
2013,04,25,05,17,7.70
2013,04,25,05,18,7.70
2013,04,25,05,19,7.60
2013,04,25,05,20,7.60
2013,04,25,05,21,7.60
2013,04,25,05,22,7.50
2013,04,25,05,23,7.50
2013,04,25,05,24,7.50
2013,04,25,05,25,7.40
2013,04,25,05,26,7.40
2013,04,25,05,27,7.40
2013,04,25,05,28,7.40
2013,04,25,05,29,7.40
2013,04,25,05,30,7.30
2013,04,25,05,31,7.30
2013,04,25,05,32,7.30
2013,04,25,05,33,7.30
2013,04,25,05,34,7.30
2013,04,25,05,35,7.20
2013,04,25,05,36,7.20
2013,04,25,05,37,7.20
2013,04,25,05,38,7.20
2013,04,25,05,39,7.20
2013,04,25,05,40,7.20
2013,04,25,05,41,7.20
2013,04,25,05,42,7.20
2013,04,25,05,43,7.20
2013,04,25,05,44,7.20
2013,04,25,05,45,7.20
2013,04,25,05,46,7.10
2013,04,25,05,47,7.10
2013,04,25,05,48,7.10
2013,04,25,05,49,7.10
2013,04,25,05,50,7.10
2013,04,25,05,51,7.10
2013,04,25,05,52,7.10
2013,04,25,05,53,7.10
2013,04,25,05,54,7.10
2013,04,25,05,55,7.00
2013,04,25,05,56,7.00
2013,04,25,05,57,7.00
2013,04,25,05,58,7.00
2013,04,25,05,59,7.00
2013,04,25,06,00,7.00
2013,04,25,06,01,6.90
2013,04,25,06,02,6.90
2013,04,25,06,03,6.90
2013,04,25,06,04,6.90
2013,04,25,06,05,6.90
2013,04,25,06,06,6.90
2013,04,25,06,07,6.90
2013,04,25,06,08,6.90
2013,04,25,06,09,6.90
2013,04,25,06,10,6.90
2013,04,25,06,11,6.90
2013,04,25,06,12,6.90
2013,04,25,06,13,6.90
2013,04,25,06,14,6.90
2013,04,25,06,15,6.90
2013,04,25,06,16,6.90
2013,04,25,06,17,6.90
2013,04,25,06,18,6.90
2013,04,25,06,19,6.90
2013,04,25,06,20,6.90
2013,04,25,06,21,6.90
2013,04,25,06,22,6.90
2013,04,25,06,23,6.90
2013,04,25,06,24,6.90
2013,04,25,06,25,6.90
2013,04,25,06,26,6.90
2013,04,25,06,27,6.90
2013,04,25,06,28,6.90
2013,04,25,06,29,7.00
2013,04,25,06,30,7.00
2013,04,25,06,31,7.10
2013,04,25,06,32,7.10
2013,04,25,06,33,7.20
2013,04,25,06,34,7.20
2013,04,25,06,35,7.20
2013,04,25,06,36,7.30
2013,04,25,06,37,7.30
2013,04,25,06,38,7.40
2013,04,25,06,39,7.40
2013,04,25,06,40,7.40
2013,04,25,06,41,7.50
2013,04,25,06,42,7.50
2013,04,25,06,43,7.60
2013,04,25,06,44,7.60
2013,04,25,06,45,7.70
2013,04,25,06,46,7.70
2013,04,25,06,47,7.70
2013,04,25,06,48,7.80
2013,04,25,06,49,7.80
2013,04,25,06,50,7.90
2013,04,25,06,51,8.00
2013,04,25,06,52,8.20
2013,04,25,06,53,8.30
2013,04,25,06,54,8.40
2013,04,25,06,55,8.50
2013,04,25,06,56,8.60
2013,04,25,06,57,8.70
2013,04,25,06,58,8.80
2013,04,25,06,59,8.80
2013,04,25,07,00,9.00
2013,04,25,07,01,9.00
2013,04,25,07,02,9.20
2013,04,25,07,03,9.20
2013,04,25,07,04,9.30
2013,04,25,07,05,9.40
2013,04,25,07,06,9.50
2013,04,25,07,07,9.60
2013,04,25,07,08,9.60
2013,04,25,07,09,9.70
2013,04,25,07,10,9.70
2013,04,25,07,11,9.80
2013,04,25,07,12,9.80
2013,04,25,07,13,9.90
2013,04,25,07,14,10.00
2013,04,25,07,15,10.00
2013,04,25,07,16,10.10
2013,04,25,07,17,10.10
2013,04,25,07,18,10.20
2013,04,25,07,19,10.20
2013,04,25,07,20,10.20
2013,04,25,07,21,10.30
2013,04,25,07,22,10.30
2013,04,25,07,23,10.40
2013,04,25,07,24,10.40
2013,04,25,07,25,10.50
2013,04,25,07,26,10.60
2013,04,25,07,27,10.60
2013,04,25,07,28,10.70
2013,04,25,07,29,10.70
2013,04,25,07,30,10.80
2013,04,25,07,31,10.80
2013,04,25,07,32,10.80
2013,04,25,07,33,10.80
2013,04,25,07,34,10.90
2013,04,25,07,35,10.90
2013,04,25,07,36,10.90
2013,04,25,07,37,10.90
2013,04,25,07,38,10.90
2013,04,25,07,39,10.90
2013,04,25,07,40,11.00
2013,04,25,07,41,11.00
2013,04,25,07,42,11.00
2013,04,25,07,43,11.00
2013,04,25,07,44,11.00
2013,04,25,07,45,11.10
2013,04,25,07,46,11.10
2013,04,25,07,47,11.10
2013,04,25,07,48,11.10
2013,04,25,07,49,11.10
2013,04,25,07,50,11.10
2013,04,25,07,51,11.10
2013,04,25,07,52,11.10
2013,04,25,07,53,11.10
2013,04,25,07,54,11.10
2013,04,25,07,55,11.10
2013,04,25,07,56,11.10
2013,04,25,07,57,11.10
2013,04,25,07,58,11.10
2013,04,25,07,59,11.20
2013,04,25,08,00,11.20
2013,04,25,08,01,11.20
2013,04,25,08,02,11.20
2013,04,25,08,03,11.20
2013,04,25,08,04,11.20
2013,04,25,08,05,11.20
2013,04,25,08,06,11.20
2013,04,25,08,07,11.20
2013,04,25,08,08,11.20
2013,04,25,08,09,11.20
2013,04,25,08,10,11.20
2013,04,25,08,11,11.20
2013,04,25,08,12,11.20
2013,04,25,08,13,11.30
2013,04,25,08,14,11.30
2013,04,25,08,15,11.30
2013,04,25,08,16,11.30
2013,04,25,08,17,11.30
2013,04,25,08,18,11.30
2013,04,25,08,19,11.30
2013,04,25,08,20,11.30
2013,04,25,08,21,11.30
2013,04,25,08,22,11.20
2013,04,25,08,23,11.20
2013,04,25,08,24,11.20
2013,04,25,08,25,11.20
2013,04,25,08,26,11.20
2013,04,25,08,27,11.20
2013,04,25,08,28,11.20
2013,04,25,08,29,11.20
2013,04,25,08,30,11.20
2013,04,25,08,31,11.20
2013,04,25,08,32,11.20
2013,04,25,08,33,11.20
2013,04,25,08,34,11.20
2013,04,25,08,35,11.20
2013,04,25,08,36,11.20
2013,04,25,08,37,11.20
2013,04,25,08,38,11.20
2013,04,25,08,39,11.20
2013,04,25,08,40,11.20
2013,04,25,08,41,11.20
2013,04,25,08,42,11.20
2013,04,25,08,43,11.20
2013,04,25,08,44,11.30
2013,04,25,08,45,11.30
2013,04,25,08,46,11.30
2013,04,25,08,47,11.30
2013,04,25,08,48,11.30
2013,04,25,08,49,11.40
2013,04,25,08,50,11.40
2013,04,25,08,51,11.40
2013,04,25,08,52,11.40
2013,04,25,08,53,11.40
2013,04,25,08,54,11.40
2013,04,25,08,55,11.40
2013,04,25,08,56,11.40
2013,04,25,08,57,11.40
2013,04,25,08,58,11.40
2013,04,25,08,59,11.40
2013,04,25,09,00,11.40
2013,04,25,09,01,11.40
2013,04,25,09,02,11.40
2013,04,25,09,03,11.40
2013,04,25,09,04,11.50
2013,04,25,09,05,11.50
2013,04,25,09,06,11.50
2013,04,25,09,07,11.50
2013,04,25,09,08,11.50
2013,04,25,09,09,11.50
2013,04,25,09,10,11.50
2013,04,25,09,11,11.50
2013,04,25,09,12,11.60
2013,04,25,09,13,11.60
2013,04,25,09,14,11.60
2013,04,25,09,15,11.60
2013,04,25,09,16,11.60
2013,04,25,09,17,11.60
2013,04,25,09,18,11.70
2013,04,25,09,19,11.70
2013,04,25,09,20,11.70
2013,04,25,09,21,11.70
2013,04,25,09,22,11.70
2013,04,25,09,23,11.80
2013,04,25,09,24,11.80
2013,04,25,09,25,11.80
2013,04,25,09,26,11.80
2013,04,25,09,27,11.80
2013,04,25,09,28,11.80
2013,04,25,09,29,11.80
2013,04,25,09,30,11.90
2013,04,25,09,31,11.90
2013,04,25,09,32,11.90
2013,04,25,09,33,11.90
2013,04,25,09,34,11.90
2013,04,25,09,35,11.90
2013,04,25,09,36,12.00
2013,04,25,09,37,12.00
2013,04,25,09,38,12.00
2013,04,25,09,39,12.10
2013,04,25,09,40,12.10
2013,04,25,09,41,12.10
2013,04,25,09,42,12.10
2013,04,25,09,43,12.10
2013,04,25,09,44,12.10
2013,04,25,09,45,12.10
2013,04,25,09,46,12.10
2013,04,25,09,47,12.10
2013,04,25,09,48,12.10
2013,04,25,09,49,12.10
2013,04,25,09,50,12.10
2013,04,25,09,51,12.10
2013,04,25,09,52,12.10
2013,04,25,09,53,12.20
2013,04,25,09,54,12.20
2013,04,25,09,55,12.20
2013,04,25,09,56,12.20
2013,04,25,09,57,12.20
2013,04,25,09,58,12.20
2013,04,25,09,59,12.20
2013,04,25,10,00,12.20
2013,04,25,10,01,12.20
2013,04,25,10,02,12.30
2013,04,25,10,03,12.30
2013,04,25,10,04,12.30
2013,04,25,10,05,12.30
2013,04,25,10,06,12.40
2013,04,25,10,07,12.40
2013,04,25,10,08,12.40
2013,04,25,10,09,12.40
2013,04,25,10,10,12.50
2013,04,25,10,11,12.50
2013,04,25,10,12,12.60
2013,04,25,10,13,12.60
2013,04,25,10,14,12.60
2013,04,25,10,15,12.60
2013,04,25,10,16,12.60
2013,04,25,10,17,12.60
2013,04,25,10,18,12.60
2013,04,25,10,19,12.60
2013,04,25,10,20,12.60
2013,04,25,10,21,12.60
2013,04,25,10,22,12.60
2013,04,25,10,23,12.60
2013,04,25,10,24,12.60
2013,04,25,10,25,12.70
2013,04,25,10,26,12.70
2013,04,25,10,27,12.70
2013,04,25,10,28,12.70
2013,04,25,10,29,12.70
2013,04,25,10,30,12.70
2013,04,25,10,31,12.80
2013,04,25,10,32,12.80
2013,04,25,10,33,12.80
2013,04,25,10,34,12.80
2013,04,25,10,35,12.80
2013,04,25,10,36,12.80
2013,04,25,10,37,12.90
2013,04,25,10,38,12.90
2013,04,25,10,39,12.90
2013,04,25,10,40,12.90
2013,04,25,10,41,12.90
2013,04,25,10,42,12.90
2013,04,25,10,43,12.90
2013,04,25,10,44,13.00
2013,04,25,10,45,13.00
2013,04,25,10,46,13.00
2013,04,25,10,47,13.00
2013,04,25,10,48,13.00
2013,04,25,10,49,13.00
2013,04,25,10,50,13.00
2013,04,25,10,51,13.00
2013,04,25,10,52,12.90
2013,04,25,10,53,12.90
2013,04,25,10,54,12.90
2013,04,25,10,55,12.90
2013,04,25,10,56,12.90
2013,04,25,10,57,12.90
2013,04,25,10,58,12.90
2013,04,25,10,59,13.00
2013,04,25,11,00,13.00
2013,04,25,11,01,13.10
2013,04,25,11,02,13.10
2013,04,25,11,03,13.10
2013,04,25,11,04,13.10
2013,04,25,11,05,13.20
2013,04,25,11,06,13.20
2013,04,25,11,07,13.20
2013,04,25,11,08,13.20
2013,04,25,11,09,13.20
2013,04,25,11,10,13.20
2013,04,25,11,11,13.20
2013,04,25,11,12,13.20
2013,04,25,11,13,13.20
2013,04,25,11,14,13.20
2013,04,25,11,15,13.20
2013,04,25,11,16,13.20
2013,04,25,11,17,13.20
2013,04,25,11,18,13.20
2013,04,25,11,19,13.30
2013,04,25,11,20,13.30
2013,04,25,11,21,13.30
2013,04,25,11,22,13.40
2013,04,25,11,23,13.40
2013,04,25,11,24,13.40
2013,04,25,11,25,13.40
2013,04,25,11,26,13.40
2013,04,25,11,27,13.40
2013,04,25,11,28,13.40
2013,04,25,11,29,13.40
2013,04,25,11,30,13.40
2013,04,25,11,31,13.40
2013,04,25,11,32,13.40
2013,04,25,11,33,13.40
2013,04,25,11,34,13.40
2013,04,25,11,35,13.30
2013,04,25,11,36,13.30
2013,04,25,11,37,13.30
2013,04,25,11,38,13.30
2013,04,25,11,39,13.30
2013,04,25,11,40,13.40
2013,04,25,11,41,13.40
2013,04,25,11,42,13.40
2013,04,25,11,43,13.50
2013,04,25,11,44,13.50
2013,04,25,11,45,13.50
2013,04,25,11,46,13.50
2013,04,25,11,47,13.60
2013,04,25,11,48,13.60
2013,04,25,11,49,13.60
2013,04,25,11,50,13.50
2013,04,25,11,51,13.40
2013,04,25,11,52,13.40
2013,04,25,11,53,13.40
2013,04,25,11,54,13.30
2013,04,25,11,55,13.30
2013,04,25,11,56,13.20
2013,04,25,11,57,13.20
2013,04,25,11,58,13.20
2013,04,25,11,59,13.20
2013,04,25,12,00,13.20
2013,04,25,12,01,13.10
2013,04,25,12,02,13.10
2013,04,25,12,03,13.10
2013,04,25,12,04,13.10
2013,04,25,12,05,13.20
2013,04,25,12,06,13.20
2013,04,25,12,07,13.20
2013,04,25,12,08,13.30
2013,04,25,12,09,13.30
2013,04,25,12,10,13.30
2013,04,25,12,11,13.40
2013,04,25,12,12,13.50
2013,04,25,12,13,13.50
2013,04,25,12,14,13.60
2013,04,25,12,15,13.60
2013,04,25,12,16,13.60
2013,04,25,12,17,13.60
2013,04,25,12,18,13.60
2013,04,25,12,19,13.60
2013,04,25,12,20,13.70
2013,04,25,12,21,13.70
2013,04,25,12,22,13.70
2013,04,25,12,23,13.70
2013,04,25,12,24,13.80
2013,04,25,12,25,13.90
2013,04,25,12,26,14.00
2013,04,25,12,27,14.10
2013,04,25,12,28,14.20
2013,04,25,12,29,14.20
2013,04,25,12,30,14.30
2013,04,25,12,31,14.50
2013,04,25,12,32,14.60
2013,04,25,12,33,14.70
2013,04,25,12,34,14.80
2013,04,25,12,35,14.90
2013,04,25,12,36,15.00
2013,04,25,12,37,15.00
2013,04,25,12,38,14.90
2013,04,25,12,39,14.80
2013,04,25,12,40,14.80
2013,04,25,12,41,14.80
2013,04,25,12,42,14.80
2013,04,25,12,43,14.80
2013,04,25,12,44,14.80
2013,04,25,12,45,14.80
2013,04,25,12,46,14.80
2013,04,25,12,47,14.80
2013,04,25,12,48,14.80
2013,04,25,12,49,14.80
2013,04,25,12,50,14.80
2013,04,25,12,51,14.80
2013,04,25,12,52,14.80
2013,04,25,12,53,14.80
2013,04,25,12,54,14.80
2013,04,25,12,55,14.80
2013,04,25,12,56,14.90
2013,04,25,12,57,15.00
2013,04,25,12,58,15.00
2013,04,25,12,59,15.00
2013,04,25,13,00,15.00
2013,04,25,13,01,14.90
2013,04,25,13,02,14.80
2013,04,25,13,03,14.70
2013,04,25,13,04,14.60
2013,04,25,13,05,14.60
2013,04,25,13,06,14.60
2013,04,25,13,07,14.60
2013,04,25,13,08,14.60
2013,04,25,13,09,14.60
2013,04,25,13,10,14.60
2013,04,25,13,11,14.60
2013,04,25,13,12,14.60
2013,04,25,13,13,14.60
2013,04,25,13,14,14.60
2013,04,25,13,15,14.60
2013,04,25,13,16,14.50
2013,04,25,13,17,14.50
2013,04,25,13,18,14.50
2013,04,25,13,19,14.50
2013,04,25,13,20,14.60
2013,04,25,13,21,14.60
2013,04,25,13,22,14.60
2013,04,25,13,23,14.50
2013,04,25,13,24,14.50
2013,04,25,13,25,14.50
2013,04,25,13,26,14.50
2013,04,25,13,27,14.50
2013,04,25,13,28,14.50
2013,04,25,13,29,14.60
2013,04,25,13,30,14.60
2013,04,25,13,31,14.70
2013,04,25,13,32,14.70
2013,04,25,13,33,14.70
2013,04,25,13,34,14.70
2013,04,25,13,35,14.70
2013,04,25,13,36,14.70
2013,04,25,13,37,14.70
2013,04,25,13,38,14.70
2013,04,25,13,39,14.70
2013,04,25,13,40,14.80
2013,04,25,13,41,14.80
2013,04,25,13,42,14.90
2013,04,25,13,43,15.00
2013,04,25,13,44,15.00
2013,04,25,13,45,15.00
2013,04,25,13,46,15.00
2013,04,25,13,47,15.00
2013,04,25,13,48,15.00
2013,04,25,13,49,15.00
2013,04,25,13,50,15.00
2013,04,25,13,51,15.00
2013,04,25,13,52,15.00
2013,04,25,13,53,15.00
2013,04,25,13,54,15.00
2013,04,25,13,55,15.00
2013,04,25,13,56,15.00
2013,04,25,13,57,15.00
2013,04,25,13,58,15.00
2013,04,25,13,59,15.00
2013,04,25,14,00,15.00
2013,04,25,14,01,15.00
2013,04,25,14,02,15.00
2013,04,25,14,03,15.10
2013,04,25,14,04,15.20
2013,04,25,14,05,15.30
2013,04,25,14,06,15.30
2013,04,25,14,07,15.30
2013,04,25,14,08,15.30
2013,04,25,14,09,15.40
2013,04,25,14,10,15.40
2013,04,25,14,11,15.40
2013,04,25,14,12,15.50
2013,04,25,14,13,15.60
2013,04,25,14,14,15.60
2013,04,25,14,15,15.70
2013,04,25,14,16,15.60
2013,04,25,14,17,15.60
2013,04,25,14,18,15.50
2013,04,25,14,19,15.50
2013,04,25,14,20,15.50
2013,04,25,14,21,15.40
2013,04,25,14,22,15.40
2013,04,25,14,23,15.40
2013,04,25,14,24,15.30
2013,04,25,14,25,15.30
2013,04,25,14,26,15.30
2013,04,25,14,27,15.30
2013,04,25,14,28,15.30
2013,04,25,14,29,15.30
2013,04,25,14,30,15.30
2013,04,25,14,31,15.40
2013,04,25,14,32,15.40
2013,04,25,14,33,15.40
2013,04,25,14,34,15.40
2013,04,25,14,35,15.40
2013,04,25,14,36,15.40
2013,04,25,14,37,15.40
2013,04,25,14,38,15.40
2013,04,25,14,39,15.40
2013,04,25,14,40,15.40
2013,04,25,14,41,15.30
2013,04,25,14,42,15.30
2013,04,25,14,43,15.30
2013,04,25,14,44,15.30
2013,04,25,14,45,15.30
2013,04,25,14,46,15.30
2013,04,25,14,47,15.30
2013,04,25,14,48,15.30
2013,04,25,14,49,15.30
2013,04,25,14,50,15.30
2013,04,25,14,51,15.30
2013,04,25,14,52,15.30
2013,04,25,14,53,15.30
2013,04,25,14,54,15.30
2013,04,25,14,55,15.30
2013,04,25,14,56,15.30
2013,04,25,14,57,15.40
2013,04,25,14,58,15.40
2013,04,25,14,59,15.40
2013,04,25,15,00,15.40
2013,04,25,15,01,15.40
2013,04,25,15,02,15.40
2013,04,25,15,03,15.30
2013,04,25,15,04,15.20
2013,04,25,15,05,15.20
2013,04,25,15,06,15.20
2013,04,25,15,07,15.20
2013,04,25,15,08,15.30
2013,04,25,15,09,15.30
2013,04,25,15,10,15.40
2013,04,25,15,11,15.40
2013,04,25,15,12,15.40
2013,04,25,15,13,15.50
2013,04,25,15,14,15.50
2013,04,25,15,15,15.50
2013,04,25,15,16,15.60
2013,04,25,15,17,15.60
2013,04,25,15,18,15.60
2013,04,25,15,19,15.70
2013,04,25,15,20,15.70
2013,04,25,15,21,15.70
2013,04,25,15,22,15.80
2013,04,25,15,23,15.90
2013,04,25,15,24,15.90
2013,04,25,15,25,15.80
2013,04,25,15,26,15.80
2013,04,25,15,27,15.90
2013,04,25,15,28,15.90
2013,04,25,15,29,15.90
2013,04,25,15,30,15.90
2013,04,25,15,31,15.90
2013,04,25,15,32,16.00
2013,04,25,15,33,16.00
2013,04,25,15,34,16.10
2013,04,25,15,35,16.10
2013,04,25,15,36,16.20
2013,04,25,15,37,16.20
2013,04,25,15,38,16.30
2013,04,25,15,39,16.30
2013,04,25,15,40,16.30
2013,04,25,15,41,16.40
2013,04,25,15,42,16.40
2013,04,25,15,43,16.30
2013,04,25,15,44,16.30
2013,04,25,15,45,16.30
2013,04,25,15,46,16.40
2013,04,25,15,47,16.40
2013,04,25,15,48,16.50
2013,04,25,15,49,16.60
2013,04,25,15,50,16.60
2013,04,25,15,51,16.70
2013,04,25,15,52,16.70
2013,04,25,15,53,16.70
2013,04,25,15,54,16.70
2013,04,25,15,55,16.80
2013,04,25,15,56,16.80
2013,04,25,15,57,16.70
2013,04,25,15,58,16.70
2013,04,25,15,59,16.60
2013,04,25,16,00,16.60
2013,04,25,16,01,16.50
2013,04,25,16,02,16.40
2013,04,25,16,03,16.30
2013,04,25,16,04,16.20
2013,04,25,16,05,16.20
2013,04,25,16,06,16.10
2013,04,25,16,07,16.10
2013,04,25,16,08,16.10
2013,04,25,16,09,16.00
2013,04,25,16,10,16.00
2013,04,25,16,11,15.90
2013,04,25,16,12,15.90
2013,04,25,16,13,15.90
2013,04,25,16,14,15.90
2013,04,25,16,15,15.90
2013,04,25,16,16,15.90
2013,04,25,16,17,15.90
2013,04,25,16,18,16.00
2013,04,25,16,19,16.00
2013,04,25,16,20,16.10
2013,04,25,16,21,16.10
2013,04,25,16,22,16.20
2013,04,25,16,23,16.20
2013,04,25,16,24,16.30
2013,04,25,16,25,16.30
2013,04,25,16,26,16.30
2013,04,25,16,27,16.30
2013,04,25,16,28,16.30
2013,04,25,16,29,16.20
2013,04,25,16,30,16.20
2013,04,25,16,31,16.20
2013,04,25,16,32,16.10
2013,04,25,16,33,16.20
2013,04,25,16,34,16.20
2013,04,25,16,35,16.20
2013,04,25,16,36,16.20
2013,04,25,16,37,16.30
2013,04,25,16,38,16.30
2013,04,25,16,39,16.30
2013,04,25,16,40,16.30
2013,04,25,16,41,16.30
2013,04,25,16,42,16.30
2013,04,25,16,43,16.30
2013,04,25,16,44,16.40
2013,04,25,16,45,16.40
2013,04,25,16,46,16.40
2013,04,25,16,47,16.40
2013,04,25,16,48,16.40
2013,04,25,16,49,16.40
2013,04,25,16,50,16.30
2013,04,25,16,51,16.20
2013,04,25,16,52,16.20
2013,04,25,16,53,16.10
2013,04,25,16,54,16.00
2013,04,25,16,55,16.00
2013,04,25,16,56,16.00
2013,04,25,16,57,15.90
2013,04,25,16,58,15.90
2013,04,25,16,59,15.90
2013,04,25,17,00,15.90
2013,04,25,17,01,15.90
2013,04,25,17,02,15.90
2013,04,25,17,03,15.90
2013,04,25,17,04,16.00
2013,04,25,17,05,16.00
2013,04,25,17,06,16.10
2013,04,25,17,07,16.10
2013,04,25,17,08,16.10
2013,04,25,17,09,16.20
2013,04,25,17,10,16.20
2013,04,25,17,11,16.20
2013,04,25,17,12,16.20
2013,04,25,17,13,16.20
2013,04,25,17,14,16.20
2013,04,25,17,15,16.30
2013,04,25,17,16,16.30
2013,04,25,17,17,16.30
2013,04,25,17,18,16.40
2013,04,25,17,19,16.40
2013,04,25,17,20,16.50
2013,04,25,17,21,16.50
2013,04,25,17,22,16.50
2013,04,25,17,23,16.60
2013,04,25,17,24,16.60
2013,04,25,17,25,16.60
2013,04,25,17,26,16.60
2013,04,25,17,27,16.60
2013,04,25,17,28,16.60
2013,04,25,17,29,16.70